INMARSAT 4-F3

Last updated on Sat Apr 13 2024 01:02:37 GMT+0100 (British Summer Time)

1 33278U 08039A 24103.42969785 -.00000148 00000+0 00000+0 0 9995 2 33278 3.6644 26.8068 0002816 0.8964 230.1167 1.00273300 38560
UTC large
Height (km)
Speed (km/s)
/
Latitude / Longitude
Inclination (degrees)
Orbital Period (minutes)
Azimuth
Elevation
Range (km)
Doppler Factor

Next 0 passes for location: London (51.5072 / 0.1276)

Sorry there are no passes over London.